Flag for Mexico Weather past 2 weeks in Ojinaga, Chihuahua, Mexico

Now
57 °F

Clear.


Feels Like: 56 °F
Forecast: 69 / 98 °F
Wind: 6 mph from North

Location: Marfa Municipal Airport

Current Time: Aug 27, 2014 at 5:20:30 AM

Latest Report: Aug 27, 2014 at 4:35 AM


Visibility: 10 mi

Pressure: 30.21 "Hg

Humidity: 88%

Dew point: 54 °F

Location of OjinagaLocation

Historic Weather in Ojinaga — Graph

°F

Ojinaga temperature yesterday

Maximum temperature yesterday: 84 °F (at 12:35 PM)
Minimum temperature yesterday: 59 °F (at 5:55 AM)
Average temperature yesterday: 72 °F

Past Weeks' High & Low Weather Summary

 TemperatureHumidityPressure
High88 °F (Aug 14, 4:35 PM)100% (Aug 12, 6:35 AM)30.35 "Hg (Aug 12, 6:35 AM)
Low57 °F (Aug 18, 5:35 AM)25% (Aug 24, 4:35 PM)30.00 "Hg (Aug 19, 5:15 PM)
Average73 °F65%30.17 "Hg
* Reported Aug 12 4:15 AM — Aug 27 4:35 AM, Ojinaga, Weather by CustomWeather, © 2014

Note: Actual official high and low records may vary slightly from our data, if they occured in-between our weather recording intervals... More about our weather records

Advertising

Ojinaga weather history for previous 24 hours

 ConditionsComfort  
Time TempWeatherWind HumidityBarometerVisibility
4:35 AM
Aug 27
57 °FClear.6 mph88%30.21 "Hg10 mi
4:15 AM59 °FClear.7 mph82%30.21 "Hg10 mi
3:55 AM57 °FClear.7 mph88%30.21 "Hg10 mi
3:35 AM59 °FClear.5 mph82%30.22 "Hg10 mi
3:15 AM59 °FClear.5 mph88%30.22 "Hg10 mi
2:35 AM61 °FClear.5 mph83%30.22 "Hg10 mi
2:15 AM61 °FClear.8 mph83%30.22 "Hg10 mi
1:55 AM61 °FClear.9 mph83%30.22 "Hg10 mi
1:35 AM61 °FClear.8 mph83%30.22 "Hg10 mi
1:15 AM61 °FClear.8 mph83%30.23 "Hg10 mi
12:55 AM63 °FClear.6 mph77%30.23 "Hg10 mi
12:35 AM63 °FClear.7 mph77%30.24 "Hg10 mi
12:15 AM63 °FClear.6 mph77%30.24 "Hg10 mi
11:55 PM
Aug 26
66 °FClear.7 mph64%30.24 "Hg10 mi
11:35 PM66 °FClear.3 mph64%30.24 "Hg10 mi
11:15 PM70 °FClear.No wind57%30.24 "Hg10 mi
10:55 PM70 °FClear.No wind57%30.24 "Hg10 mi
10:35 PM70 °FClear.7 mph57%30.23 "Hg10 mi
10:15 PM70 °FClear.7 mph57%30.23 "Hg10 mi
9:55 PM70 °FClear.8 mph57%30.22 "Hg10 mi
9:35 PM68 °FClear.6 mph60%30.21 "Hg10 mi
9:15 PM66 °FClear.6 mph68%30.21 "Hg10 mi
8:55 PM70 °FClear.5 mph57%30.20 "Hg10 mi
8:35 PM72 °FClear.3 mph53%30.19 "Hg10 mi
8:15 PM73 °FSunny.8 mph50%30.18 "Hg10 mi
7:55 PM73 °FPassing clouds.7 mph50%30.18 "Hg10 mi
7:35 PM75 °FPassing clouds.7 mph47%30.18 "Hg10 mi
7:15 PM79 °FPassing clouds.7 mph45%30.18 "Hg10 mi
6:55 PM81 °FScattered clouds.7 mph45%30.17 "Hg10 mi
6:15 PM81 °FPartly sunny.10 mph45%30.16 "Hg10 mi
5:55 PM81 °FScattered clouds.9 mph45%30.15 "Hg10 mi
5:35 PM81 °FSunny.12 mph48%30.15 "Hg10 mi
4:55 PM79 °FPassing clouds.12 mph54%30.16 "Hg10 mi
4:35 PM79 °FSunny.12 mph54%30.16 "Hg10 mi
4:15 PM79 °FSunny.9 mph54%30.17 "Hg10 mi
3:55 PM81 °FSunny.12 mph51%30.17 "Hg10 mi
3:35 PM82 °FPassing clouds.10 mph45%30.18 "Hg10 mi
2:55 PM77 °FThundershowers. More clouds than sun.3 mph61%30.19 "Hg10 mi
2:35 PM73 °FPartly sunny.8 mph69%30.21 "Hg10 mi
2:15 PM81 °FBroken clouds.14 mph42%30.21 "Hg10 mi
1:55 PM84 °FPartly sunny.21 mph37%30.21 "Hg10 mi
1:35 PM82 °FScattered clouds.7 mph40%30.22 "Hg10 mi
1:15 PM84 °FPassing clouds.8 mph40%30.22 "Hg10 mi
12:55 PM82 °FSunny.6 mph40%30.23 "Hg10 mi
12:35 PM84 °FSunny.7 mph40%30.24 "Hg10 mi
11:55 AM81 °FSunny.7 mph45%30.25 "Hg10 mi
11:35 AM81 °FSunny.8 mph45%30.26 "Hg10 mi
11:15 AM81 °FSunny.5 mph45%30.26 "Hg10 mi
10:55 AM81 °FSunny.7 mph45%30.26 "Hg10 mi
10:35 AM81 °FSunny.9 mph45%30.26 "Hg10 mi
10:15 AM79 °FSunny.6 mph48%30.25 "Hg10 mi
9:55 AM79 °FSunny.6 mph48%30.25 "Hg10 mi
9:35 AM77 °FSunny.7 mph51%30.25 "Hg10 mi
9:15 AM75 °FSunny.No wind54%30.24 "Hg10 mi
8:55 AM73 °FSunny.No wind57%30.24 "Hg10 mi
8:35 AM73 °FSunny.No wind57%30.25 "Hg10 mi
8:15 AM72 °FSunny.No wind61%30.25 "Hg10 mi
7:55 AM70 °FSunny.3 mph64%30.24 "Hg10 mi
7:35 AM64 °FSunny.3 mph83%30.24 "Hg10 mi
7:15 AM63 °FClear.5 mph83%30.24 "Hg10 mi
6:55 AM61 °FPassing clouds.7 mph88%30.23 "Hg10 mi
6:35 AM59 °FClear.8 mph88%30.23 "Hg10 mi
5:55 AM59 °FClear.5 mph88%30.21 "Hg10 mi
5:35 AM61 °FClear.6 mph88%30.21 "Hg10 mi
Weather by CustomWeather, © 2014

See weather overviewHow to use our weather pages